Tracking 20036 objects as of 22-Nov-2019
Live streaming from Space Station
objects crossing your sky now

DELTA 1 DEB

Track DELTA 1 DEB now!
10-day predictions


NORAD ID: 42559
Int'l Code: 1972-058JS
Perigee: 545.5 km
Apogee: 554.9 km
Inclination: 98.2 °
Period: 95.5 minutes
Semi major axis: 6921 km
RCS: Unknown
Launch date: July 23, 1972
Source: United States (US)
Launch site: AIR FORCE WESTERN TEST RANGE (AFWTR)

Note: This is SATELLITE DEBRIS
aabbcc
Your satellite tracking list
Your tracking list is empty




NASA's NSSDC Master Catalog

Two Line Element Set (TLE):
1 42559U 72058JS  19325.65705646  .00009833  00000-0  64702-3 0  9991
2 42559  98.2016  42.3209 0006793 219.0220 141.0516 15.07768983269889
Source of the keplerian elements: AFSPC